Location: Pabrico
(37.5827°N, 122.0063°W)
Time: 10:27:12
(UTC+00:00)

Cosmos 1452 Rocket - Pass Details

Date: 13 April 2024
Orbit: 766 x 772 km, 74.1° (Epoch: 23 May)

Event Time Altitude Azimuth Distance (km) Brightness Sun altitude
Rises 13:03:00 0° 345° (NNW) 3,247 6.8 -7.0°
Reaches altitude 10° 13:05:25 10° 348° (NNW) 2,315 6.1 -6.5°
Maximum altitude 13:10:38 65° 70° (ENE) 846 4.1 -5.5°
Drops below altitude 10° 13:15:49 10° 152° (SSE) 2,297 6.2 -4.5°
Sets 13:18:12 0° 155° (SSE) 3,218 6.9 -4.1°
